This demonstration page uses our WeatherBlox Daily Observations layout. Learn more.

Left ArrowRight Arrow

53.62937, 11.41316

Hourly Observations for March 19, 2021

Temp ( °F °C ) Dew Point ( °F °C ) Humidity (%) Winds ( mph kmh ) Pressure ( in mb ) Visibility ( mi km ) Precip ( " mm )
7:50 am 07:50 Mostly Cloudy 34 1 32 0 93 93 NNE 6 9 30.21 1023 30 48 N/A
8:20 am 08:20 Mostly Cloudy 36 2 32 0 87 87 NNE 7 11 30.21 1023 30 48 N/A
8:50 am 08:50 Mostly Cloudy 37 3 34 1 87 87 NNE 8 13 30.24 1024 30 48 N/A
9:20 am 09:20 Partly Cloudy 39 4 32 0 75 75 NE 14 22 30.24 1024 30 48 N/A
9:50 am 09:50 Mostly Cloudy 39 4 32 0 75 75 NE 14 22 30.24 1024 30 48 N/A
10:20 am 10:20 Mostly Cloudy 39 4 30 -1 70 70 NE 14 22 30.27 1025 30 48 N/A
10:50 am 10:50 Partly Cloudy 39 4 30 -1 70 70 NE 13 20 30.27 1025 30 48 N/A
11:20 am 11:20 Partly Cloudy 39 4 28 -2 65 65 NE 16 26 30.27 1025 30 48 N/A
11:50 am 11:50 Partly Cloudy 39 4 28 -2 65 65 NE 14 22 30.27 1025 30 48 N/A
12:20 pm 12:20 Mostly Cloudy 39 4 28 -2 65 65 ENE 16 26 30.30 1026 30 48 N/A
12:50 pm 12:50 Partly Cloudy 39 4 27 -3 61 61 NE 16 26 30.30 1026 30 48 N/A
1:20 pm 13:20 Partly Cloudy 37 3 27 -3 65 65 NE 17 28 30.30 1026 30 48 N/A
1:50 pm 13:50 Mostly Cloudy 37 3 25 -4 60 60 NE 17 28 30.33 1027 30 48 N/A
2:20 pm 14:20 Mostly Cloudy 37 3 23 -5 56 56 NNE 15 24 30.33 1027 30 48 N/A
2:50 pm 14:50 Mostly Cloudy 37 3 23 -5 56 56 NE 15 24 30.33 1027 30 48 N/A
3:20 pm 15:20 Partly Cloudy 37 3 25 -4 60 60 NE 15 24 30.33 1027 30 48 N/A
3:50 pm 15:50 Partly Cloudy 36 2 21 -6 56 56 ENE 14 22 30.33 1027 30 48 N/A
4:20 pm 16:20 Mostly Sunny 37 3 21 -6 52 52 NE 15 24 30.33 1027 30 48 N/A
4:50 pm 16:50 Mostly Sunny 36 2 18 -8 48 48 NE 15 24 30.33 1027 30 48 N/A
5:20 pm 17:20 Mostly Sunny 36 2 12 -11 38 38 NE 15 24 30.36 1028 30 48 N/A
5:50 pm 17:50 Mostly Sunny 34 1 16 -9 48 48 NE 14 22 30.36 1028 7 11 N/A
6:20 pm 18:20 Mostly Sunny 32 0 16 -9 51 51 NE 10 17 30.36 1028 7 11 N/A
6:50 pm 18:50 Mostly Clear 30 -1 18 -8 59 59 NE 7 11 30.36 1028 7 11 N/A
7:20 pm 19:20 Mostly Clear 30 -1 18 -8 59 59 NE 7 11 30.36 1028 7 11 N/A
7:50 pm 19:50 Mostly Clear 28 -2 18 -8 64 64 NNE 6 9 30.39 1029 7 11 N/A

Powered by AerisWeather